[[{"header":{"parameterUnit":"m.s-1","parameterCategory":1,"la1":30.2991,"la2":30.254,"lo1":-89.0895,"lo2":-89.0444,"dy":0.0017,"dx":0.0017,"nx":28,"ny":28,"refTime":"2025-04-27T09:00:00:Z","depth":0,"parameterNumber":2,"parameterNumberName":"U-component_of_WINDS"},"data":[0,0,0,0,0,0,0,0,0,0,0,0,0,0,0,0,0,0,0,0,0,0,0,0,0,0,0,0,0,0,0,0,0,0,0,0,0,0,0,0,0,0,0,0,0,0,0,0,0,0,0,0,0,0,0,0,0,0,1.3977,1.3978,0,1.4116,1.4118,1.4119,1.4155,1.4154,1.4153,1.4152,1.4294,1.4298,1.4303,0,0,0,0,0,0,0,0,0,0,0,0,0,1.374,1.3744,1.3977,1.3978,1.398,1.4116,1.4118,1.412,1.4155,1.4154,1.4153,1.4152,1.4292,1.4298,1.4303,0,0,0,0,0,0,0,0,0,0,0,0,0,1.3857,1.3746,1.3976,1.4014,1.4019,1.4115,1.4118,1.412,1.4155,1.4154,1.4153,1.4151,1.429,1.4297,1.4304,1.4372,0,0,1.4325,1.4328,0,0,0,0,0,0,0,0,1.3851,1.3866,1.4007,1.4012,1.4017,1.4117,1.4086,1.4204,1.4156,1.4104,1.4152,1.4151,1.4236,1.4247,1.4276,1.4379,1.4385,1.4325,1.433,1.4332,1.4334,0,0,0,0,0,0,0,1.3843,1.386,1.4032,1.4009,1.4015,1.4024,1.4039,1.4109,1.4175,1.4108,1.4111,1.4127,1.4238,1.4269,1.428,1.4387,1.4325,1.4331,1.4335,1.4338,1.4552,1.4553,0,0,0,0,0,0,1.3828,1.3853,1.4027,1.4036,1.3929,1.4029,1.4046,1.4086,1.4175,1.4187,1.4128,1.4128,1.4258,1.4272,1.4285,1.437,1.4332,1.4339,1.4343,1.455,1.4552,1.4554,0,0,0,0,0,0,1.3823,1.3843,1.4022,1.3946,1.3969,1.4035,1.4079,1.409,1.4121,1.419,1.4201,1.4147,1.4258,1.4275,1.435,1.4375,1.4342,1.4348,1.4548,1.4551,1.4553,1.4541,0,0,0,0,0,0,1.3816,1.3841,1.3868,1.3946,1.3973,1.4085,1.4081,1.4093,1.4132,1.4134,1.4211,1.4223,1.4258,1.434,1.4357,1.4384,1.4353,1.4546,1.4549,1.4552,1.4539,1.4543,1.4545,0,0,0,0,0,1.3807,1.3859,1.3869,1.389,1.4008,1.4086,1.4102,1.4142,1.4134,1.4162,1.4206,1.422,1.437,1.4347,1.4367,1.4396,1.4545,1.4549,1.4552,1.4538,1.4542,1.4545,0,0,0,0,0,0,1.3782,1.387,1.3882,1.3961,1.4016,1.4092,1.4128,1.4145,1.4203,1.4202,1.4249,1.4266,1.4338,1.4375,1.4348,1.4467,1.4457,1.4465,1.444,1.4444,1.4447,1.4437,1.4359,0,0,0,0,0,1.3786,1.3843,1.3916,1.3978,1.4005,1.4062,1.4098,1.4124,1.4183,1.4206,1.4256,1.4312,1.4372,1.441,1.4469,1.4545,1.4562,1.4575,1.4578,1.458,1.4586,1.4628,1.4635,1.4565,1.4565,1.4565,0,0,1.3793,1.3849,1.3882,1.3974,1.402,1.4078,1.4081,1.4142,1.4185,1.4215,1.4289,1.4327,1.4393,1.4469,1.4505,1.4502,1.4609,1.4585,1.4586,1.4591,1.4633,1.4639,1.4645,1.4568,1.4567,1.4567,0,0,1.3837,1.3885,1.3941,1.3987,1.4057,1.4094,1.4108,1.4182,1.4209,1.4284,1.4308,1.4359,1.4461,1.4507,1.4544,1.4604,1.4619,1.4622,1.4638,1.4678,1.4684,1.4689,1.471,1.4717,1.4628,1.4628,1.4628,0,1.3838,1.3926,1.3968,1.4028,1.4068,1.4099,1.4156,1.4198,1.4283,1.431,1.4306,1.4434,1.4481,1.4567,1.4582,1.4611,1.4627,1.4613,1.468,1.4685,1.4691,1.4711,1.4719,1.4628,1.4628,1.4628,1.4628,0,1.3923,1.3984,1.4021,1.4103,1.4147,1.4205,1.4256,1.4295,1.4318,1.4355,1.4431,1.4488,1.4558,1.4581,1.4603,1.4671,1.4667,1.467,1.4662,1.4696,1.4716,1.4725,1.4628,1.4628,1.4628,1.4628,0,0,1.3954,1.4059,1.4072,1.4109,1.4188,1.4236,1.4295,1.4364,1.4397,1.4455,1.4505,1.4591,1.4595,1.4636,1.4664,1.47,1.4743,1.4699,1.4702,1.4705,1.482,1.4817,1.4825,1.4754,1.4756,1.4757,1.4815,0,1.4007,1.4115,1.4155,1.4243,1.4299,1.4329,1.4381,1.4434,1.4471,1.4523,1.4564,1.4623,1.4624,1.465,1.4686,1.473,1.4767,1.4727,1.4801,1.4803,1.4783,1.4836,1.4832,1.4884,1.4823,1.4824,1.4825,0,1.4083,1.4142,1.4236,1.4308,1.4333,1.4379,1.4445,1.4495,1.4557,1.4581,1.4627,1.4652,1.4715,1.4703,1.4789,1.4761,1.4794,1.482,1.4823,1.4831,1.4816,1.4845,1.4901,1.4909,1.4838,1.4837,1.4836,0,1.4096,1.4199,1.4268,1.4299,1.4385,1.4416,1.4453,1.4513,1.4552,1.461,1.4636,1.4701,1.4736,1.4785,1.4827,1.4814,1.4909,1.4901,1.4931,1.4929,1.4949,1.4947,1.5011,1.4971,1.4971,1.497,1.497,0,1.4151,1.4207,1.4275,1.4317,1.4381,1.4426,1.4487,1.4526,1.4579,1.4629,1.4659,1.4705,1.4758,1.4811,1.4844,1.4911,1.4926,1.4947,1.4955,1.4944,1.4942,1.4966,1.4963,1.4973,1.4972,1.4972,1.4971,0,1.4175,1.4223,1.4301,1.4376,1.4396,1.4439,1.4503,1.4545,1.4583,1.4646,1.4663,1.4723,1.4786,1.4833,1.4916,1.4938,1.5009,1.5017,1.4988,1.4992,1.5019,1.5016,1.51,1.5114,1.5065,1.5065,1.5065,0,1.4207,1.4251,1.433,1.4366,1.4403,1.4461,1.4501,1.4547,1.4588,1.4661,1.4694,1.476,1.4815,1.4915,1.4966,1.5029,1.5039,1.5064,1.5048,1.5036,1.5038,1.5035,1.5039,1.5066,1.5066,1.5066,1.5067,0,1.4257,1.4279,1.4336,1.4401,1.4449,1.4502,1.4556,1.4584,1.4639,1.4683,1.4749,1.4792,1.4876,1.4941,1.5009,1.5047,1.5066,1.5071,1.5081,1.507,1.5052,1.5062,1.4994,1.5069,1.5069,1.5069,1.5068,1.5068,1.4286,1.4326,1.4389,1.4451,1.4497,1.4547,1.459,1.4633,1.4689,1.4762,1.4785,1.4853,1.4913,1.5006,1.5045,1.5098,1.5098,1.5112,1.5116,1.5119,1.5118,1.5043,1.5111,1.5111,1.5111,1.5111,1.5111,0,1.4338,1.438,1.4437,1.4511,1.456,1.4575,1.4635,1.4675,1.4735,1.4789,1.4843,1.4918,1.4981,1.5036,1.5102,1.5134,1.5144,1.5149,1.5147,1.5155,1.5115,1.51,1.514,1.514,1.514,1.514,1.514,1.514,1.4371,1.4439,1.4468,1.4559,1.4601,1.4668,1.4701,1.4747,1.4791,1.4874,1.4926,1.4962,1.5017,1.5086,1.5144,1.5159,1.5181,1.5184,1.5201,1.5162,1.5158,1.5155,1.5141,1.5189,1.5189,1.5237,1.5237,1.5238]},{"header":{"parameterUnit":"m.s-1","parameterCategory":1,"la1":30.2991,"la2":30.254,"lo1":-89.0895,"lo2":-89.0444,"dy":0.0017,"dx":0.0017,"nx":28,"ny":28,"refTime":"2025-04-27T09:00:00:Z","depth":0,"parameterNumber":3,"parameterNumberName":"V-component_of_WINDS"},"data":[0,0,0,0,0,0,0,0,0,0,0,0,0,0,0,0,0,0,0,0,0,0,0,0,0,0,0,0,0,0,0,0,0,0,0,0,0,0,0,0,0,0,0,0,0,0,0,0,0,0,0,0,0,0,0,0,0,0,3.3007,3.3007,0,3.3007,3.3007,3.3007,3.2952,3.2951,3.2949,3.2948,3.2948,3.295,3.2951,0,0,0,0,0,0,0,0,0,0,0,0,0,3.2957,3.2958,3.3007,3.3007,3.3007,3.3007,3.3007,3.3007,3.2952,3.2951,3.2949,3.2947,3.2948,3.295,3.2951,0,0,0,0,0,0,0,0,0,0,0,0,0,3.297,3.2958,3.3007,3.2979,3.2977,3.3007,3.3007,3.3008,3.2953,3.295,3.2948,3.2946,3.2947,3.2949,3.2951,3.3008,0,0,3.2958,3.2959,0,0,0,0,0,0,0,0,3.2969,3.2972,3.2983,3.2981,3.2979,3.2977,3.299,3.3008,3.2953,3.2962,3.2948,3.2945,3.296,3.2961,3.2966,3.3008,3.3008,3.2958,3.2959,3.296,3.2961,0,0,0,0,0,0,0,3.2968,3.2972,3.3007,3.2984,3.2981,3.2967,3.2966,3.2993,3.2973,3.2961,3.2957,3.2958,3.2958,3.2964,3.2965,3.3008,3.2958,3.296,3.2961,3.2962,3.3097,3.3099,0,0,0,0,0,0,3.2971,3.2971,3.3007,3.3007,3.2968,3.2969,3.2969,3.298,3.2973,3.2969,3.296,3.2955,3.2961,3.2963,3.2965,3.3031,3.296,3.2962,3.2963,3.3095,3.3098,3.31,0,0,0,0,0,0,3.2971,3.2975,3.3007,3.2988,3.2991,3.2973,3.2986,3.2981,3.2987,3.2972,3.2968,3.2969,3.296,3.2962,3.2998,3.303,3.2963,3.2965,3.3092,3.3096,3.3099,3.3163,0,0,0,0,0,0,3.2969,3.2975,3.2997,3.2989,3.2992,3.304,3.2988,3.2983,3.2991,3.2985,3.298,3.2977,3.2958,3.2995,3.3,3.3032,3.2966,3.3089,3.3094,3.3098,3.3158,3.3168,3.3177,0,0,0,0,0,3.2968,3.3015,3.2998,3.3003,3.3019,3.3042,3.3044,3.3022,3.2993,3.3015,3.3005,3.2977,3.3026,3.2999,3.3004,3.3037,3.3087,3.3092,3.3097,3.3153,3.3166,3.3177,0,0,0,0,0,0,3.3027,3.3013,3.2995,3.3041,3.3043,3.3033,3.3059,3.3036,3.3046,3.304,3.3012,3.3011,3.3051,3.3048,3.3018,3.3091,3.3051,3.3058,3.3092,3.3104,3.3113,3.3113,3.2968,0,0,0,0,0,3.3045,3.3065,3.3052,3.3094,3.3096,3.3078,3.3087,3.3069,3.3071,3.3071,3.3064,3.3066,3.3082,3.3093,3.3106,3.3157,3.3155,3.3182,3.3192,3.32,3.3205,3.3231,3.3243,3.3117,3.3117,3.3117,0,0,3.3084,3.3079,3.3093,3.3106,3.3106,3.3127,3.3079,3.3103,3.3118,3.3075,3.3108,3.3103,3.3103,3.3147,3.3165,3.3145,3.324,3.3206,3.3213,3.3214,3.3238,3.325,3.3261,3.3121,3.312,3.312,0,0,3.3164,3.3163,3.3197,3.3198,3.3198,3.3185,3.3193,3.3186,3.3181,3.3214,3.3181,3.3199,3.3227,3.3228,3.3233,3.3314,3.3288,3.3319,3.3369,3.3395,3.3404,3.3413,3.3441,3.3452,3.3325,3.3325,3.3325,0,3.3212,3.3242,3.3218,3.3244,3.325,3.3212,3.3246,3.3248,3.3253,3.3258,3.3235,3.3269,3.3266,3.3309,3.3329,3.3334,3.3342,3.3319,3.3405,3.3414,3.3421,3.3448,3.3459,3.3329,3.3328,3.3328,3.3328,0,3.33,3.3322,3.335,3.3355,3.3365,3.3395,3.3375,3.3387,3.3369,3.3359,3.3392,3.3388,3.34,3.3409,3.3392,3.3449,3.3437,3.341,3.3369,3.3437,3.3462,3.3472,3.3334,3.3333,3.3332,3.3331,0,0,3.3418,3.3409,3.342,3.3421,3.3418,3.3435,3.3463,3.3475,3.3486,3.349,3.3513,3.3538,3.3513,3.3518,3.35,3.3523,3.3586,3.3493,3.3493,3.351,3.3649,3.3669,3.3681,3.357,3.3571,3.3573,3.3649,0,3.3496,3.3544,3.3522,3.3572,3.3592,3.3555,3.358,3.3581,3.3572,3.3587,3.3577,3.3594,3.3561,3.3563,3.3584,3.3574,3.3614,3.3569,3.359,3.3591,3.3591,3.3694,3.3715,3.3788,3.3659,3.366,3.3661,0,3.3593,3.3601,3.3653,3.3646,3.3653,3.3676,3.3685,3.37,3.37,3.3691,3.3697,3.3674,3.3701,3.3661,3.3698,3.3668,3.3675,3.3672,3.3674,3.3675,3.363,3.3698,3.381,3.3821,3.3676,3.3675,3.3674,0,3.3673,3.3697,3.3731,3.3734,3.3727,3.3743,3.3741,3.3739,3.3747,3.3755,3.376,3.377,3.3776,3.3785,3.3766,3.3738,3.3805,3.3763,3.3799,3.3799,3.3814,3.3813,3.3929,3.382,3.382,3.382,3.382,0,3.3761,3.3795,3.3767,3.3788,3.3824,3.3799,3.3835,3.3829,3.3827,3.3846,3.3816,3.3834,3.3807,3.3823,3.3808,3.3841,3.3844,3.3838,3.3833,3.384,3.3841,3.3844,3.3839,3.3823,3.3822,3.3821,3.3821,0,3.3857,3.384,3.3875,3.3865,3.3863,3.389,3.3882,3.3901,3.3889,3.3914,3.3918,3.39,3.3917,3.3899,3.3915,3.3904,3.3948,3.3937,3.3948,3.3945,3.3981,3.3978,3.4103,3.4118,3.4,3.4001,3.4002,0,3.3915,3.3939,3.3932,3.3942,3.3942,3.3959,3.3967,3.3943,3.3953,3.3955,3.3973,3.3988,3.3998,3.4027,3.4015,3.4027,3.4015,3.4058,3.4017,3.4023,3.4015,3.4014,3.4016,3.4067,3.4068,3.4069,3.407,0,3.4019,3.4009,3.4021,3.4031,3.4042,3.4048,3.4052,3.4063,3.4038,3.405,3.4067,3.4075,3.4091,3.4105,3.4114,3.4111,3.4087,3.4083,3.4092,3.4099,3.4105,3.4102,3.3971,3.4081,3.408,3.4079,3.4078,3.4078,3.4096,3.4116,3.4114,3.4129,3.413,3.4135,3.4152,3.4142,3.4156,3.4167,3.4152,3.4173,3.4172,3.418,3.4181,3.4197,3.4178,3.4191,3.4194,3.4198,3.4203,3.4103,3.4198,3.4198,3.4198,3.4197,3.4197,0,3.4198,3.4195,3.4209,3.4216,3.4228,3.4203,3.4207,3.4218,3.4237,3.4238,3.4248,3.4268,3.4281,3.4271,3.4283,3.4297,3.4286,3.4301,3.43,3.4299,3.4219,3.421,3.431,3.431,3.431,3.431,3.431,3.431,3.4253,3.4285,3.4275,3.4307,3.4303,3.4323,3.4327,3.4331,3.4332,3.4354,3.4366,3.4359,3.4355,3.4366,3.4378,3.4374,3.438,3.4399,3.4391,3.4316,3.4305,3.4295,3.4286,3.44,3.44,3.447,3.4471,3.4471]}]]